カタログに戻る

ATLAS CENTAUR R/B

運用中HEO
NORAD 12497·ROCKET BODY·🇺🇸 United States

打ち上げ May 23, 1981 から Cape Canaveral Space Force Station

Loading…

次のパス (今後24時間)

TLE

最新Source: Space-Track

元期: Sep 14, 2026, 11:01 UTC

1 12497U 81050B   26257.45928646  .00009155  00000-0  73169-3 0  9992
2 12497  23.9408 270.7218 3240945 204.5942 135.7617  8.82306983184865

AllMySatでATLAS CENTAUR R/Bをリアルタイム追跡

Download on the App Store